Other Surface Observations
Issued by NWS

Home | Current Version | Previous Version | Text Only | Print | Product List | Glossary On
Versions: 1 2 3 4 5 6 7 8 9 10 11 12 13 14 15 16 17 18 19 20 21 22 23 24 25 26 27 28 29 30 31 32 33 34 35 36 37 38 39 40 41 42 43 44 45 46 47 48 49 50
000
SXUS52 KTAE 211005
OSOTAE
OSOTAE
North Florida/South Alabama/Southwest Georgia Weather Roundup
National Weather Service Tallahassee Florida
500 AM EST SUN DEC 21 2014

Note: "fair" indicates few or no clouds below 12,000 feet with no
significant weather and/or obstructions to visibility.

!FLZ017-115-028-034-025-211100
...North Florida...

CITY           SKY/WX    TMP DP  RH WIND       PRES   REMARKS
TALLAHASSEE    CLOUDY    56  52  86 NE5       30.07F
APALACHICOLA   CLOUDY    58  54  86 NE6       30.04S
PERRY          CLOUDY    56  55  97 NE6       30.09S FOG
CROSS CITY       N/A     58  56  93 VRB3      30.06F
JACKSONVILLE   CLOUDY    57  57 100 NE8       30.10S
$$

!FLZ112-006-005-002-011-211100
...Florida Panhandle...

CITY           SKY/WX    TMP DP  RH WIND       PRES   REMARKS
MARIANNA       CLOUDY    53  53 100 NE9       30.10S
BONIFAY        NOT AVBL
PANAMA CITY NW CLOUDY    54  51  90 N5        30.08R
TYNDALL AFB    NOT AVBL
TYND DRONE APT NOT AVBL
DE FUNIAK SPR  CLOUDY    52  50  93 NE9       30.09F
EGLIN AFB      CLOUDY    53  50  89 NE8       30.09F
DESTIN         CLOUDY    55  51  86 NE7       30.08F
HURLBURT       CLOUDY    54  48  82 NE8       30.08F
CRESTVIEW      CLOUDY    53  50  89 NE5       30.11F
PENSACOLA      CLOUDY    50  49  96 N6        30.09F
$$

!ALZ063-066-211100
...South Alabama...

CITY           SKY/WX    TMP DP  RH WIND       PRES   REMARKS
DOTHAN         CLOUDY    53  51  93 NE9       30.15S
OZARK CAIRNS   CLOUDY    53  50  89 NE8       30.10F
FT RUCKER HELI CLOUDY    53  50  89 VRB5      30.10F
RUCKER HELI 3  MOCLDY    52  50  93 NE6       30.13F
RUCKER HELI 2  CLOUDY    53  50  89 E8        30.11F
FLORALA APT    CLOUDY    53  50  89 NE7       30.11F
ANDALUSIA      CLOUDY    56  49  77 E5        30.11S
TROY           CLOUDY    52  49  89 NE6       30.13F
EUFALA         CLOUDY    53  50  89 CALM      30.13F
MOBILE         CLOUDY    49  48  97 NE6       30.12F
$$

!GAZ120>161-211100
...Southwest and South Central Georgia...

CITY           SKY/WX    TMP DP  RH WIND       PRES   REMARKS
THOMASVILLE    RAIN      54  54 100 NE6       30.11S
BAINBRIDGE     LGT RAIN  55  54  94 NE6       30.11R
MOODY AFB      CLOUDY    53  52  95 E9        30.10F
VALDOSTA       CLOUDY    54  53  97 NE7       30.10F
MOULTRIE       DRIZZLE   52  52 100 NE6       30.10F
BLAKELY        CLOUDY    55  54  94 NE6       30.12F
ALBANY         CLOUDY    53  50  89 NE8       30.15F
TIFTON         CLOUDY    52  51  99 NE7       30.12F FOG
FITZGERALD     LGT RAIN  54  51  90 NE6       30.15F
CORDELE        CLOUDY    54  51  91 E5        30.17S
AMERICUS       CLOUDY    52  52 100 E8        30.17F
HOMERVILLE     LGT RAIN  54  54 100 NE3       30.13S
$$

!GMZ750-755-770-775-211100
...Coastal and Buoy Obs...

STATION/POSITION TIME  TEMP    WIND        PRES    VSBY  WAVE
                       AIR SEA DIR/SP/G                  HT/PER
                 (UTC) (F)     (DEG/KT/KT) (MB)    (MI)  (FT/S)
KEATON BEACH     1000   57      40/  6/  9 1018.0F
CEDAR KEY        0900   58      70/ 11/ 12 1018.3F
C TOWER          1000   59      60/ 19/ 20 1016.6F
APALACHICOLA BUO 0900   70 71  110/ 16/ 17 1015.9F         3/ 4
PANAMA CITY BUOY NOT AVBL
MOBILE BUOY      1000   63 74   30/ 19/ 21 1017.0F         5/ 6
ORANGE BCH AL BU 0900   56 70   20/ 12/ 16 1018.7F         3/ 6
$$



USA.gov is the U.S. government's official web portal to all federal, state and local government web resources and services.